Date,TemperatureHighF,TemperatureAvgF,TemperatureLowF,DewpointHighF,DewpointAvgF,DewpointLowF,HumidityHigh,HumidityAvg,HumidityLow,PressureMaxIn,PressureMinIn,WindSpeedMaxMPH,WindSpeedAvgMPH,GustSpeedMaxMPH,PrecipitationSumIn
2012-1-1,38.3,24.5,16.5,18.3,13.2,10.4,81,64,35,30.47,30.31,12,6,14,0.00
2012-1-2,44.4,28.0,23.2,32.3,22.8,18.3,85,81,64,30.39,30.15,13,9,16,0.00
2012-1-3,52.7,45.8,38.8,24.2,20.3,16.9,46,36,24,30.18,29.97,21,10,28,0.07
2012-1-4,61.5,53.6,43.0,26.6,22.4,15.5,44,30,18,30.17,29.99,24,11,30,0.02
2012-1-5,59.9,48.6,27.1,27.1,18.8,12.5,59,33,16,29.99,29.84,41,16,48,6.15
2012-1-6,41.5,29.8,21.7,16.8,13.7,8.1,75,53,27,30.10,29.99,19,6,23,0.00
2012-1-7,38.7,24.7,14.0,21.5,13.9,10.3,86,65,37,30.12,30.00,16,5,21,0.00
2012-1-8,48.2,35.4,15.6,28.6,23.2,10.8,83,62,44,30.09,30.01,14,6,20,0.00
2012-1-9,60.1,47.2,27.3,28.7,24.0,20.1,86,47,25,30.12,29.96,24,9,28,0.00
2012-1-10,51.8,36.5,15.3,33.5,24.0,8.2,96,67,37,30.31,29.81,24,12,32,0.01
2012-1-11,44.9,15.0,5.5,11.6,3.4,-2.5,89,61,37,30.34,30.22,24,7,31,0.00
2012-1-12,36.7,24.4,7.5,19.3,13.8,2.9,83,65,47,30.17,29.96,17,5,26,0.00
2012-1-13,39.9,30.2,19.6,23.4,17.9,12.2,83,62,37,30.06,29.89,27,7,42,0.09
2012-1-14,48.9,34.6,17.2,25.4,18.6,12.3,83,57,29,30.03,29.67,17,6,23,0.00
2012-1-15,40.3,21.4,7.3,24.8,11.4,1.0,79,67,32,29.96,29.59,17,8,27,0.00
2012-1-16,15.4,4.6,-2.7,6.4,-0.7,-6.9,85,79,59,30.01,29.93,8,4,11,0.00
2012-1-17,28.8,7.5,-6.2,8.6,-1.3,-10.5,84,70,38,30.02,29.65,25,8,32,0.32
2012-1-18,-6.2,-12.1,-17.7,-10.5,-17.4,-23.2,81,77,73,29.88,29.71,17,5,23,0.00
2012-1-19,3.0,-3.3,-10.8,-2.6,-7.9,-15.8,83,79,75,29.82,29.65,10,3,13,0.00
2012-1-20,0.9,-2.9,-4.5,-4.7,-7.4,-8.9,81,81,78,29.84,29.73,8,4,10,0.00
2012-1-21,48.6,41.7,30.6,35.0,31.5,23.1,86,68,53,29.54,29.27,26,9,32,0.05
2012-1-22,37.4,27.3,16.3,24.3,15.4,8.0,70,61,46,29.83,29.52,18,8,23,0.00
2012-1-23,43.2,28.0,13.8,25.6,17.1,7.5,83,65,41,29.95,29.73,20,7,25,0.00
2012-1-24,44.2,27.0,8.2,22.7,8.3,-2.8,87,51,21,30.07,29.78,26,7,37,0.00
2012-1-25,48.9,43.0,34.7,30.0,24.5,13.2,61,49,33,29.95,29.68,41,18,56,2.98
2012-1-26,44.1,34.9,26.1,30.9,24.7,17.9,96,67,46,30.00,29.67,30,9,42,0.85
2012-1-27,30.7,25.3,19.0,24.9,13.9,6.9,95,64,37,30.22,29.99,22,10,29,0.02
2012-1-28,40.6,29.9,19.6,28.8,14.9,6.5,70,54,35,30.15,29.94,17,8,23,0.00
2012-1-29,49.6,46.0,41.2,32.8,30.6,26.8,67,55,43,29.94,29.70,34,17,42,1.83
2012-1-30,48.2,43.6,36.0,31.1,28.3,25.1,68,56,41,29.77,29.60,29,13,38,1.42
2012-1-31,48.7,38.4,32.0,25.7,23.5,18.1,71,56,31,30.02,29.84,24,8,29,0.00
2012-2-1,51.1,39.2,27.1,27.1,20.2,12.4,73,49,27,30.04,29.91,16,6,22,0.00
2012-2-2,39.7,32.3,22.5,32.4,26.0,20.3,93,78,61,30.37,30.04,16,7,22,0.00
2012-2-3,47.5,28.7,16.7,26.4,19.6,13.3,92,72,37,30.41,30.33,9,5,11,0.00
2012-2-4,57.0,32.3,18.3,22.5,16.6,12.4,85,59,18,30.33,30.22,11,6,13,0.00
2012-2-5,54.3,31.0,20.5,23.2,16.6,9.0,83,60,16,30.23,30.14,14,5,16,0.00
2012-2-6,30.2,26.3,19.8,25.4,21.9,17.4,92,83,70,30.41,30.22,14,6,19,0.00
2012-2-7,30.7,21.0,10.9,18.8,16.0,7.9,91,81,58,30.40,30.18,17,7,23,0.00
2012-2-8,48.4,25.4,8.4,24.1,12.6,5.2,91,65,27,30.19,30.04,9,4,13,0.00
2012-2-9,40.1,34.3,27.7,29.9,19.4,15.3,71,55,38,30.22,30.06,26,8,34,0.02
2012-2-10,27.7,16.0,6.4,17.5,10.5,2.6,89,79,64,30.32,30.21,12,7,18,0.00
2012-2-11,34.2,16.6,0.1,18.5,7.6,-4.1,83,69,44,30.32,29.96,11,5,15,0.00
2012-2-12,50.7,30.8,14.0,30.4,21.8,11.4,91,72,40,29.96,29.74,11,4,15,0.00
2012-2-13,42.8,38.1,32.4,29.6,24.3,20.5,82,59,45,29.76,29.72,21,6,27,0.00
2012-2-14,34.3,26.7,11.3,27.3,20.6,8.4,90,78,62,29.89,29.70,23,6,36,0.00
2012-2-15,36.7,22.8,8.6,18.5,12.1,5.5,88,66,37,30.07,29.88,14,5,17,0.00
2012-2-16,43.7,29.4,13.5,23.5,13.7,9.1,86,57,26,30.07,29.97,21,8,29,0.00
2012-2-17,43.3,32.9,21.7,29.0,24.0,17.1,94,72,38,30.13,29.96,16,7,21,0.00
2012-2-18,45.0,31.9,19.9,30.5,21.0,14.2,82,66,41,29.96,29.80,20,9,26,0.00
2012-2-19,41.7,33.1,25.9,21.7,14.8,9.1,65,48,27,29.85,29.73,20,10,25,0.00
2012-2-20,33.6,29.3,25.5,26.3,21.2,12.7,95,73,49,29.85,29.79,20,7,28,0.00
2012-2-21,45.9,36.0,22.3,34.7,27.1,20.2,93,72,46,29.81,29.62,34,11,46,0.38
2012-2-22,50.7,37.1,27.7,36.9,31.9,24.7,97,83,39,29.73,29.34,42,11,57,5.69
2012-2-23,33.1,27.1,23.5,27.0,22.9,16.2,96,85,59,30.01,29.73,17,8,25,0.00
2012-2-24,41.9,29.7,23.9,22.2,19.1,13.6,86,66,40,30.13,29.75,19,5,25,0.00
2012-2-25,41.9,29.0,16.9,32.7,24.7,15.0,97,85,56,29.83,29.41,27,10,36,0.00
2012-2-26,25.5,15.8,11.7,21.1,12.7,9.1,92,87,68,30.05,29.83,19,8,24,0.00
2012-2-28,37.4,21.1,8.8,22.7,13.0,4.9,87,73,45,29.88,29.77,11,5,14,0.00
2012-2-29,43.7,28.2,12.0,27.8,17.3,7.7,94,67,39,29.78,29.53,24,8,30,0.00
2012-3-1,36.3,28.0,19.0,24.1,15.3,10.4,91,60,38,29.93,29.65,18,10,24,0.00
2012-3-2,34.2,25.6,18.3,21.5,17.2,12.5,92,72,43,30.02,29.92,25,9,33,0.00
2012-3-3,46.8,37.9,26.6,31.4,25.6,17.8,71,61,47,29.96,29.79,27,11,34,0.44
2012-3-4,57.9,45.3,31.8,34.1,29.0,22.4,88,55,34,30.06,29.84,21,8,27,0.00
2012-3-5,55.9,48.6,36.0,27.4,25.2,20.6,70,43,30,29.85,29.49,36,15,46,0.21
2012-3-6,41.0,33.8,27.3,33.0,29.9,24.6,96,86,63,29.63,29.46,17,4,21,0.01
2012-3-7,36.5,24.0,7.2,17.6,12.3,4.0,89,64,40,30.20,29.89,20,8,27,0.00
2012-3-8,54.5,39.9,17.8,30.7,21.2,12.4,80,49,27,30.28,30.20,19,9,25,0.00
2012-3-9,63.5,50.4,33.1,26.9,21.2,15.0,63,34,15,30.22,29.93,30,11,41,1.25
2012-3-10,67.6,51.0,34.0,67.6,23.0,7.4,69,35,10,29.94,29.72,23,8,30,0.04
2012-3-11,67.1,48.7,33.4,32.8,24.0,9.9,75,46,11,29.76,29.47,21,8,28,0.00
2012-3-12,56.5,43.0,28.9,29.2,21.0,9.9,74,46,24,29.84,29.63,29,9,36,0.13
2012-3-13,64.9,48.9,34.0,30.3,23.1,14.3,79,41,16,29.80,29.43,37,14,48,5.20
2012-3-14,46.9,37.1,30.6,36.6,27.1,12.0,92,69,38,29.90,29.78,15,4,21,0.04
2012-3-15,65.1,51.7,34.7,36.0,32.9,27.8,86,52,29,29.91,29.73,23,8,30,0.08
2012-3-16,60.8,44.1,35.4,40.2,34.2,30.0,86,69,38,29.75,29.60,24,7,30,0.08
2012-3-17,66.0,50.0,34.3,39.4,33.5,28.4,87,56,31,29.71,29.41,30,11,44,0.41
2012-3-18,52.7,42.3,32.2,37.0,32.6,29.1,98,72,45,29.54,29.37,24,8,33,0.00
2012-3-19,32.2,29.9,27.1,31.7,28.8,25.1,98,95,90,29.67,29.38,32,16,42,0.30
2012-3-20,42.4,35.4,21.2,26.6,19.0,10.6,66,52,42,29.75,29.70,36,16,46,0.05
2012-3-21,42.6,36.6,29.1,27.9,26.5,24.0,83,67,55,29.89,29.75,24,10,31,0.09
2012-4-8,52.5,36.0,19.4,26.3,20.1,16.1,88,57,24,30.33,30.23,8,3,11,0.00
2012-4-9,53.4,40.3,29.1,28.6,24.6,20.7,79,55,34,30.30,30.14,18,6,27,0.00
2012-4-10,57.9,49.1,33.1,27.0,24.1,20.1,60,38,28,30.15,29.98,21,13,29,0.00
2012-4-11,71.4,55.7,37.9,42.9,32.7,23.1,62,43,27,29.98,29.57,25,10,37,0.08
2012-4-12,55.6,47.6,41.7,44.0,39.2,31.7,93,74,58,29.72,29.49,27,10,34,0.57
2012-4-13,61.3,48.4,34.5,32.7,25.8,11.2,73,46,15,29.77,29.70,20,8,24,0.00
2012-4-14,62.2,45.7,27.5,31.2,23.6,14.0,87,50,20,29.81,29.73,18,5,21,0.00
2012-4-15,43.0,32.3,28.2,33.1,27.9,24.6,95,84,55,30.09,29.87,16,9,21,0.01
2012-4-16,61.0,43.8,24.3,41.1,28.2,20.6,93,60,25,30.06,29.93,21,5,27,0.06
2012-4-17,56.8,47.9,40.5,40.7,32.5,20.9,82,59,30,30.03,29.92,24,9,32,0.00
2012-4-18,54.9,43.4,33.4,41.8,36.6,32.5,97,78,57,30.01,29.88,27,5,35,0.20
2012-4-19,54.3,41.4,29.5,38.3,31.7,27.6,97,73,40,30.07,29.94,26,5,31,0.02
2012-4-20,67.5,52.8,32.4,39.5,34.1,28.6,87,54,31,30.06,29.88,31,14,41,0.91
2012-4-21,64.8,51.9,40.8,37.6,31.8,18.4,79,51,26,30.19,30.03,14,6,25,0.00
2012-4-22,50.9,39.8,37.9,39.9,34.5,33.1,86,81,67,30.17,30.15,11,7,13,0.00
2012-5-8,80.8,66.4,43.0,43.9,30.6,13.9,72,35,13,30.16,29.94,15,4,21,0.00
2012-5-9,81.5,62.7,40.3,44.9,30.3,8.7,84,43,10,29.95,29.73,21,7,29,0.00
2012-5-10,59.0,45.0,35.6,40.9,30.2,8.9,94,62,21,30.16,29.82,26,9,36,0.44
2012-5-11,36.9,36.9,36.9,28.3,28.3,28.3,71,71,71,30.22,30.15,2,2,2,0.44
2012-5-12,76.6,55.3,30.0,76.6,29.9,2.7,80,41,10,30.27,30.18,9,4,11,0.01
2012-5-13,61.7,39.6,33.8,35.6,30.8,28.6,82,72,39,30.23,30.19,11,6,14,0.00
2012-5-14,76.5,50.9,38.3,44.0,33.7,24.9,82,59,15,30.20,30.12,14,6,20,0.00
2012-5-15,80.8,74.3,50.5,35.2,28.1,23.5,54,23,17,30.19,29.91,11,2,17,0.00
2012-5-16,80.1,77.4,0.0,27.4,27.4,27.4,18,17,18,29.91,29.90,1,1,3,0.00
2012-5-17,71.8,58.4,51.6,52.4,45.4,31.8,95,66,34,29.90,29.77,16,5,20,0.40
2012-5-18,57.2,49.8,35.8,50.8,44.4,34.7,99,83,58,30.05,29.77,24,6,34,0.12
2012-5-19,66.6,48.8,32.2,44.1,34.0,23.4,97,66,24,30.14,30.04,15,4,22,0.01
2012-5-20,75.0,56.0,36.1,49.3,39.9,26.7,96,63,23,30.16,30.02,19,5,27,0.00
2012-5-21,84.4,62.1,44.2,56.1,46.9,33.1,89,65,22,30.07,29.82,28,6,37,0.18
2012-5-22,58.3,56.1,53.1,53.6,52.5,51.5,97,88,81,29.82,29.71,16,4,27,0.50
2012-5-23,58.8,50.1,38.7,39.1,33.6,26.8,90,57,36,29.75,29.66,24,10,33,0.01
2012-5-24,42.8,41.1,39.7,37.9,37.1,36.1,89,86,81,29.79,29.75,17,8,23,0.00
2012-5-25,49.5,41.0,29.3,38.3,32.6,27.8,96,74,46,30.04,29.96,16,6,21,0.01
2012-5-26,41.9,37.9,33.6,38.7,35.2,32.3,96,90,80,30.02,29.82,16,4,19,0.35
2012-5-27,37.8,34.8,33.1,35.2,33.8,32.8,99,96,88,29.89,29.77,23,9,28,0.38
2012-5-28,50.2,40.5,33.4,40.4,36.5,33.2,99,87,66,30.09,29.88,25,12,35,0.24
2012-5-29,70.0,51.6,32.4,49.3,42.0,30.7,95,73,39,30.08,29.93,29,6,39,0.08
2012-5-30,62.6,52.8,35.1,45.7,36.1,29.8,92,57,34,30.12,29.96,25,7,33,0.00
2012-5-31,67.8,55.4,37.0,51.1,41.8,34.4,91,64,36,30.14,29.96,12,5,18,0.00
2012-6-1,70.9,59.4,43.0,51.8,45.5,39.8,89,64,40,30.03,29.92,18,6,24,0.00
2012-6-2,84.4,61.9,45.5,59.4,50.7,42.9,97,73,36,29.93,29.68,50,5,64,3.21
2012-6-3,79.9,59.6,39.2,51.0,42.9,34.0,97,62,29,29.99,29.85,11,3,14,0.00
2012-6-4,80.8,66.8,46.8,61.0,52.4,44.0,90,63,40,30.01,29.68,30,7,48,1.07
2012-6-5,86.4,72.8,60.4,65.2,56.0,37.1,88,59,24,29.71,29.49,27,8,42,0.01
2012-6-6,65.5,58.0,46.4,55.2,36.9,22.8,83,50,24,30.09,29.66,33,12,40,1.07
2012-6-7,75.7,58.4,39.0,45.3,38.4,29.8,89,54,23,30.12,29.94,19,5,24,0.00
2012-6-8,78.3,64.0,51.8,55.5,49.8,43.7,83,63,36,29.94,29.69,20,7,27,0.00
2012-6-9,63.7,52.0,42.6,46.0,39.4,27.7,93,66,30,29.84,29.72,19,5,28,0.07
2012-6-10,53.8,47.0,42.1,46.3,38.1,31.1,92,73,51,29.92,29.75,37,17,50,5.11
2012-6-15,69.6,57.4,44.4,52.4,41.9,37.3,89,60,33,30.19,29.94,15,6,21,0.00
2012-6-16,78.4,60.4,39.6,50.4,38.3,19.9,92,53,12,30.19,29.87,17,7,25,0.00
2012-6-17,75.4,64.4,51.6,53.8,46.0,36.9,87,54,27,29.87,29.63,26,10,41,1.23
2012-6-18,72.0,58.3,41.4,47.9,40.1,32.5,92,56,25,29.84,29.64,18,6,25,0.04
2012-6-19,61.5,53.0,43.2,46.5,41.9,37.5,90,68,46,30.01,29.79,21,10,31,0.04
2012-6-20,69.1,53.9,46.2,51.5,46.6,43.7,97,79,45,30.17,29.99,21,8,27,0.67
2012-6-21,82.4,67.6,41.2,51.3,43.4,32.4,92,50,21,30.17,29.99,16,6,24,0.00
2012-6-22,76.8,65.7,55.2,54.8,49.9,47.1,75,59,41,30.04,29.80,20,10,30,0.00
2012-6-23,79.9,67.4,56.5,59.0,54.7,50.8,83,66,49,29.90,29.83,27,10,36,0.28
2012-6-24,87.3,71.2,61.5,68.3,62.1,57.7,92,75,45,29.96,29.88,22,11,27,0.02
2012-6-25,93.4,75.2,59.0,71.8,64.7,57.8,99,74,35,29.96,29.73,17,5,22,0.00
2012-6-26,91.2,74.2,54.7,90.7,59.3,26.3,96,53,10,29.86,29.60,30,9,44,1.16
2012-6-27,75.0,62.2,42.6,45.7,31.3,11.9,83,36,10,30.05,29.87,30,11,36,2.29
2012-6-28,90.5,66.9,41.5,54.7,42.3,33.1,85,49,16,30.09,29.96,10,4,13,0.00
2012-6-29,91.6,70.7,49.8,54.9,46.0,34.3,86,48,21,30.05,29.95,20,6,28,0.00
2012-6-30,89.4,70.9,48.4,56.0,48.3,40.8,94,54,24,30.08,29.92,14,4,21,0.00
2012-7-1,83.5,70.2,57.0,57.1,52.0,46.7,95,56,35,30.08,29.83,42,9,56,2.67
2012-7-2,74.5,61.6,56.5,56.9,52.9,47.3,95,76,44,30.05,29.94,9,3,11,0.01
2012-7-3,93.2,75.5,61.0,66.1,48.2,31.3,69,41,14,29.94,29.69,21,8,32,0.00
2012-7-4,85.8,66.6,45.7,46.7,36.5,28.1,73,39,14,30.02,29.94,13,5,20,0.00
2012-7-5,69.3,63.4,49.6,53.8,46.1,35.8,74,55,38,30.06,30.01,15,6,20,0.00
2012-7-6,66.0,66.0,66.0,50.8,50.8,50.8,59,59,59,30.02,30.02,8,8,15,0.00
2012-7-11,94.1,74.2,52.5,58.7,48.7,30.2,83,49,12,30.09,30.02,11,4,15,0.00
2012-7-12,94.8,77.1,55.6,58.5,48.7,38.8,84,44,15,30.10,29.99,13,5,20,0.00
2012-7-13,92.1,76.8,56.7,65.9,53.2,45.9,71,46,27,30.08,30.01,21,4,24,0.00
2012-7-14,89.1,74.1,65.1,63.4,59.6,53.8,82,62,36,30.06,29.90,10,2,11,0.00
2012-7-15,89.8,72.8,58.6,61.0,57.6,51.2,90,62,30,29.96,29.83,24,4,34,0.04
2012-7-16,82.9,68.4,51.4,61.5,55.8,49.9,96,68,39,30.03,29.94,12,4,15,0.05
2012-7-17,88.5,73.6,58.8,64.1,59.2,50.2,97,65,30,30.00,29.88,15,4,21,0.00
2012-7-18,99.1,78.3,54.3,99.0,56.7,29.5,91,47,10,29.99,29.91,14,5,19,0.00
2012-7-19,100.6,77.4,53.2,59.9,47.7,36.2,76,43,12,30.11,29.98,11,4,12,0.00
2012-7-20,86.4,72.3,60.4,64.5,56.5,48.1,88,59,39,30.21,30.05,27,7,37,0.35
2012-7-21,93.0,76.4,56.8,63.1,58.3,50.6,97,58,25,30.13,30.02,11,4,15,0.00
2012-7-22,95.0,75.2,52.2,56.2,48.0,31.0,88,47,11,30.17,30.03,19,5,27,0.00
2012-7-23,99.1,78.2,60.6,99.1,53.2,30.0,84,45,10,30.06,29.90,24,6,32,0.12
2012-7-24,88.0,74.6,53.4,55.7,31.3,10.2,85,32,10,30.05,29.89,19,6,26,0.00
2012-7-25,81.0,66.1,46.2,50.8,45.6,40.0,89,54,28,30.10,30.00,16,5,24,0.00
2012-7-26,87.8,65.4,47.3,57.8,50.9,42.5,95,68,29,30.17,30.03,43,5,56,2.66
2012-7-27,90.9,71.4,54.1,59.6,54.1,42.7,98,60,23,30.08,29.98,19,4,27,0.00
2012-7-28,99.3,78.0,55.6,60.2,44.0,17.9,83,41,10,30.09,29.96,28,4,42,0.21
2012-7-29,93.4,73.4,53.6,58.0,48.4,33.6,88,51,17,30.14,30.04,28,4,39,0.00
2012-7-30,87.4,62.3,54.0,57.2,52.2,48.4,88,74,30,30.10,30.07,11,5,14,0.00
2012-8-14,90.0,71.9,51.4,54.9,41.7,25.4,86,46,10,30.00,29.79,25,8,36,0.44
2012-8-15,61.3,55.0,42.4,55.9,48.5,40.3,98,80,57,30.27,29.99,15,8,24,0.09
2012-8-16,81.3,60.3,42.1,46.4,41.5,34.1,94,57,19,30.27,30.07,8,4,11,0.00
2012-8-17,87.1,63.8,41.4,50.3,38.6,28.4,93,51,13,30.18,30.10,9,5,14,0.00
2012-8-18,89.6,66.9,43.7,89.6,45.8,20.5,81,41,10,30.21,30.09,10,5,12,0.00
2012-8-19,95.0,70.0,45.9,95.0,44.2,23.8,76,41,10,30.12,29.98,11,5,14,0.00
2012-8-20,95.2,74.8,48.7,47.0,31.9,14.1,76,33,10,30.04,29.99,17,5,26,0.00
2012-8-21,75.4,56.1,50.4,46.1,41.1,39.6,69,59,36,30.04,30.01,11,6,12,0.00
2012-8-22,86.7,76.4,56.1,57.6,41.7,24.6,86,39,16,29.99,29.93,17,5,21,0.00
2012-9-1,88.3,69.3,57.9,58.3,47.5,37.3,72,49,17,29.99,29.84,22,6,30,0.12
2012-9-2,83.5,61.7,37.9,83.5,43.4,11.9,88,41,10,30.05,29.94,17,5,23,0.00
2012-9-3,80.2,59.0,37.2,37.9,29.1,19.3,74,40,11,30.09,29.98,15,5,21,0.00
2012-9-4,68.9,53.0,40.1,43.5,37.7,33.3,85,59,27,30.17,30.02,21,7,27,0.00
2012-9-5,77.7,57.9,38.5,42.9,35.3,29.6,87,51,18,30.16,29.95,14,7,21,0.00
2012-9-6,65.5,55.1,46.0,46.9,43.0,38.4,82,64,48,30.23,30.05,8,3,11,0.00
2012-9-7,79.9,62.6,39.9,47.2,38.2,26.0,94,50,18,30.30,30.22,14,4,24,0.00
2012-9-8,83.7,62.5,38.3,37.9,26.5,8.9,81,40,10,30.31,30.09,22,8,30,0.00
2012-9-9,95.7,69.0,44.8,42.3,26.0,10.4,71,34,10,30.09,29.79,22,6,33,0.00
2012-9-10,83.8,67.5,50.0,47.4,29.3,6.0,75,35,10,29.95,29.77,35,7,43,0.28
2012-9-11,62.6,50.8,34.2,38.2,19.6,-4.2,85,41,10,30.20,29.95,29,8,36,0.04
2012-9-12,65.7,45.0,30.7,27.4,21.3,10.9,72,45,13,30.33,30.19,12,5,16,0.00
2012-9-13,81.0,56.5,32.7,34.4,24.9,14.6,75,41,12,30.38,30.29,13,5,15,0.00
2012-9-14,88.3,63.0,41.9,41.5,28.9,3.8,65,39,10,30.31,30.08,22,8,28,0.00
2012-9-15,81.7,62.2,46.9,40.0,28.5,10.7,59,35,12,30.14,30.08,14,5,17,0.00
2012-9-16,69.6,55.0,43.2,39.9,36.1,31.5,76,53,29,30.24,30.09,14,4,23,0.00
2012-9-17,75.6,54.9,34.7,39.7,31.3,10.2,91,53,13,30.23,30.07,15,5,23,0.00
2012-9-18,43.2,40.9,39.7,34.8,33.8,33.1,80,76,71,30.09,30.07,10,6,13,0.00
2012-9-25,85.8,60.0,40.5,40.6,36.2,30.4,79,48,14,30.02,29.94,9,5,13,0.00
2012-9-26,68.5,54.3,44.1,50.5,44.7,36.3,89,71,50,30.15,30.01,10,5,14,0.00
2012-9-27,79.9,58.2,40.5,50.1,43.6,39.1,96,64,28,30.18,30.09,13,4,17,0.00
2012-9-28,87.6,61.3,42.4,48.3,39.2,30.5,87,53,13,30.11,29.94,10,4,12,0.00
2012-9-29,77.7,58.4,42.6,44.8,39.0,36.1,81,54,24,30.11,29.96,17,7,23,0.00
2012-9-30,70.2,55.2,42.6,45.3,40.5,37.2,82,61,36,30.31,30.11,18,7,25,0.00
2012-10-1,79.7,63.9,37.4,46.1,30.2,19.2,91,40,15,30.30,29.83,20,8,27,0.00
2012-10-2,76.5,65.6,46.8,38.4,32.1,21.3,72,33,19,29.96,29.79,24,10,30,0.02
2012-10-3,46.6,38.7,33.4,40.1,36.0,33.2,99,90,72,30.15,29.94,17,5,24,0.20
2012-10-4,44.1,36.6,33.1,36.1,33.0,30.0,98,87,63,30.40,30.30,11,3,14,0.00
2012-10-5,40.5,30.3,27.0,34.0,29.4,26.7,99,96,74,30.36,30.31,5,2,7,0.01
2012-10-30,59.9,55.3,48.7,38.1,36.5,35.1,62,50,40,29.96,29.94,12,6,17,0.07
2012-10-31,58.6,46.4,35.8,43.6,38.8,34.1,94,76,44,30.07,29.89,18,8,22,0.00
2012-11-1,60.4,46.1,36.5,44.9,39.5,34.0,94,79,46,29.93,29.80,26,4,34,0.13
2012-11-2,54.3,43.2,34.9,40.6,37.1,32.6,97,80,53,30.10,29.93,14,4,18,0.01
2012-11-3,63.0,43.1,28.0,43.0,32.1,26.1,95,72,29,30.10,30.01,21,5,27,0.04
2012-11-4,54.1,48.5,43.2,43.3,39.6,36.7,81,72,56,30.22,30.02,18,5,24,0.01
2012-11-5,66.7,54.9,34.7,43.9,38.1,32.2,92,57,33,30.16,29.98,35,13,45,6.12
2012-11-6,61.5,47.0,32.0,42.7,34.1,30.0,93,67,38,30.18,29.96,13,4,17,0.00
2012-11-7,66.9,55.5,36.5,41.2,31.1,20.1,58,40,28,29.99,29.73,21,10,30,0.00
2012-11-8,35.6,28.7,27.1,28.2,26.5,22.7,96,92,59,30.04,29.81,17,7,24,0.00
2012-11-9,28.2,22.3,13.6,26.7,20.4,11.4,97,92,87,29.91,29.73,17,8,21,0.00
2012-11-10,13.6,13.0,12.2,11.5,10.9,10.1,91,91,91,29.90,29.88,13,10,16,0.00
2012-11-11,26.8,21.4,14.2,13.4,10.5,7.6,76,63,50,30.05,29.98,17,8,21,0.00
2012-11-12,40.5,31.5,23.7,30.4,22.9,11.1,89,71,50,30.08,30.03,18,8,24,0.01
2012-11-13,45.1,38.2,32.4,30.0,27.4,24.0,79,66,50,30.14,30.06,14,7,21,0.00
2012-11-14,49.6,35.6,23.4,32.9,28.1,19.5,92,75,53,30.19,30.01,21,5,28,0.00
2012-11-15,33.3,26.8,22.6,31.2,25.0,20.5,95,93,91,30.20,30.18,10,5,12,0.00
2012-11-22,34.9,24.7,17.4,22.5,18.7,15.2,95,79,53,30.38,29.91,17,8,24,0.00
2012-11-23,54.7,37.5,17.4,28.9,22.2,15.2,91,59,34,30.35,29.96,23,11,28,0.05
2012-11-24,52.2,42.8,31.1,35.4,29.1,21.9,96,63,31,30.03,29.90,19,8,29,0.07
2012-11-25,36.5,29.9,26.6,31.2,28.1,25.5,97,93,75,30.18,29.95,9,3,12,0.00
2012-11-26,45.0,26.0,13.8,29.5,19.6,11.9,97,79,42,30.20,30.04,9,3,11,0.02
2012-11-27,50.4,28.0,15.6,26.4,17.3,11.9,86,67,25,30.10,30.00,11,6,15,0.00
2012-11-28,62.8,40.2,25.5,35.5,23.9,14.4,81,59,21,30.01,29.82,14,6,16,0.00
2012-11-29,51.4,42.5,34.2,37.3,32.0,25.3,76,67,43,29.87,29.81,24,10,28,0.00
2012-12-17,43.3,38.2,35.2,28.1,23.9,20.8,65,57,52,29.44,29.34,21,12,28,0.00
2012-12-18,35.2,35.2,35.2,20.8,20.8,20.8,56,56,56,29.44,29.44,11,11,17,0.00
2012-12-19,35.2,35.2,35.2,20.8,20.8,20.8,56,56,56,29.44,29.44,11,11,17,0.00
2012-12-20,49.8,38.0,21.9,20.8,17.2,11.6,65,45,27,29.95,29.44,30,10,35,0.00
2012-12-21,40.1,32.7,28.6,18.7,17.4,14.3,65,55,37,29.91,29.89,11,5,14,0.00
2012-12-27,0.0,0.0,0.0,0.0,0.0,0.0,0,0,100,29.85,29.84,0,0,0,0.00